Probability
0 0 0 0 0 0 0 0 0 0 0 0 0 0 0 0 0 0 0 0 0 0 0 0 0 0 0 0 0 0 0 0 0 0 0 0 0 0 0 0 0 0 0
0 0 0 0 0 0 0 0 0 0 0 0 0 0 0 0 0 0 0 0 0 0 0 0 0 0 0 0 0 0 0 0 0 0 0 0 0 0 0 0 0 0 0
0 0 0 0 0 0 0 0 0 0 0 0 0 0 0 0 0 0 0 0 0 0 0 0 0 0 0 0 0 0 0 0 0 0 0 0 0 0 0 0 0 0 0
0 0 0 0 0 0 0 0 0 0 0 0 0 0 0 0 0 0 0 0 0 0 0 0 0 0 0 0 0 0 0 0 0 0 0 0 0 0 0 0 0 0 0
0 0 0 0 0 0 0 0 0 0 0 0 0 0 0 0 0 0 0 0 0 0 0 0 0 0 0 0 0 0 0 0 0 0 0 0 0 0 0 0 0 0 0
0 0 0 0 0 0 0 0 0 0 0 0 0 0 0 0 0 0 0 0 0 0 0 0 0 0 0 0 0 0 0 0 0 0 0 0 0 0 0 0 0 0 0
0 0 0 0 0 0 0 0 0 0 0 0 0 0 0 0 0 0 0 0 0 0 0 0 0 0 0 0 0 0 0 0 0 0 0 0 0 0 0 0 0 0 0
0 0 0 0 0 0 0 0 0 0 0 0 0 0 0 0 0 0 0 0 0 0 0 0 0 0 0 0 0 0 0 0 0 0 0 0 0 0 0 0 0 0 0
0 0 0 0 0 0 0 0 0 0 0 0 0 0 0 0 0 0 0 0 0 0 0 0 0 0 0 0 0 0 0 0 0 0 0 0 0 0 0 0 0 0 0
0 0 0 0 0 0 0 0 0 0 0 0 0 0 0 0 0 0 0 0 0 0 0 0 0 0 0 0 0 0 0 0 0 0 0 0 0 0 0 0 0 0 0
0 0 0 0 0 0 0 0 0 0 0 0 0 0 0 0 0 0 0 0 0 0 0 0 0 0 0 0 0 0 0 0 0 0 0 0 0 0 0 0 0 0 0
0 0 0 0 0 0 0 0 0 0 0 0 0 0 0 0 0 0 0 0 0 0 0 0 0 0 0 0 0 0 0 0 0 0 0 0 0 0 0 0 0 0 0
0 0 0 0 0 0 0 0 0 0 0 0 0 0 0 0 0 0 0 0 0 0 0 0 0 0 0 0 0 0 0 0 0 0 0 0 0 0 0 0 0 0 0
0 0 0 0 0 0 0 0 0 0 0 0 0 0 0 0 0 0 0 0 0 0 0 0 0 0 0 0 0 0 0 0 0 0 0 0 0 0 0 0 0 0 0
0 0 0 0 0 0 0 0 0 0 0 0 0 0 0 0 0 0 0 0 0 0 0 0 0 0 0 0 0 0 0 0 0 0 0 0 0 0 0 0 0 0 0
0 0 0 0 0 0 0 0 0 0 0 0 0 0 0 0 0 0 0 0 0 0 0 0 0 0 0 0 0 0 0 0 0 0 0 0 0 0 0 0 0 0 0
0 0 0 0 0 0 0 0 0 0 0 0 0 0 0 0 0 0 0 0 0 0 0 0 0 0 0 0 0 0 0 0 0 0 0 0 0 0 0 0 0 0 0
0 0 0 0 0 0 0 0 0 0 0 0 0 0 0 0 0 0 0 0 0 0 0 0 0 0 0 0 0 0 0 0 0 0 0 0 0 0 0 0 0 0 0
0 0 0 0 0 0 0 0 0 0 0 0 0 0 0 0 0 0 0 0 0 0 0 0 0 0 0 0 0 0 0 0 0 0 0 0 0 0 0 0 0 0 0
0 0 0 0 0 0 0 0 0 0 0 0 0 0 0 0 0 0 0 0 0 0 0 0 0 0 0 0 0 0 0 0 0 0 0 0 0 0 0 0 0 0 0
0 0 0 0 0 0 0 0 0 0 0 0 0 0 0 0 0 0 0 0 0 0 0 0 0 0 0 0 0 0 0 0 0 0 0 0 0 0 0 0 0 0 0
0 0 0 0 0 0 0 0 0 0 0 0 0 0 0 0 0 0 0 0 0 0 0 0 0 0 0 0 0 0 0 0 0 0 0 0 0 0 0 0 0 0 0
0 0 0 0 0 0 0 0 0 0 0 0 0 0 0 0 0 0 0 0 0 0 0 0 0 0 0 0 0 0 0 0 0 0 0 0 0 0 0 0 0 0 0
0 0 0 0 0 0 0 0 0 0 0 0 0 0 0 0 0 0 0 0 0 0 0 0 0 0 0 0 0 0 0 0 0 0 0 0 0 0 0 0 0 0 0
0 0 0 0 0 0 0 0 0 0 0 0 0 0 0 0 0 0 0 0 0 0 0 0 0 0 0 0 0 0 0 0 0 0 0 0 0 0 0 0 0 0 0
0 0 0 0 0 0 0 0 0 0 0 0 0 0 0 0 0 0 0 0 0 0 0 0 0 0 0 0 0 0 0 0 0 0 0 0 0 0 0 0 0 0 0
Wind_Speed
11 10 10 9 9 9 9 8 7 7 7 8 8 8 8 7 6 6 5 5 5 5 5 5 5 5 4 4 4 4 5 5 10 10 7 8 10 12 12 12 12 11 11
10 11 10 10 10 10 9 8 8 8 7 7 7 7 7 6 5 6 5 5 5 5 6 6 7 6 7 6 5 6 6 7 8 13 11 9 11 12 13 13 12 11 10
10 11 11 10 10 9 8 7 7 7 6 6 6 6 6 5 4 4 3 4 4 5 6 7 8 7 8 7 8 7 7 8 8 11 13 10 9 10 11 11 12 10 11
11 11 11 10 9 8 8 7 6 6 6 5 5 5 4 3 3 3 3 4 5 6 7 7 8 8 9 9 8 9 9 9 10 10 11 10 9 9 8 9 9 8 9
11 11 9 8 7 7 7 7 6 6 5 4 4 4 3 2 2 3 3 5 6 8 8 8 8 11 12 10 9 9 10 9 9 9 9 9 9 8 7 7 9 9 10
10 9 8 7 7 7 6 6 6 5 5 4 4 4 3 3 5 8 7 5 7 8 9 9 9 10 12 15 17 17 16 13 11 9 8 9 11 10 8 7 8 8 7
8 7 7 7 7 6 6 6 5 4 4 4 4 4 3 4 7 8 11 6 7 7 8 8 8 9 12 9 13 17 16 18 17 12 11 10 11 9 9 9 8 9 8
7 6 6 6 6 5 5 5 4 3 3 3 3 3 3 4 8 8 11 7 7 8 8 9 9 10 10 12 12 12 12 12 12 9 9 10 9 9 8 8 9 8 7
6 5 5 5 5 5 5 4 3 3 3 3 2 3 3 5 9 10 10 6 7 9 9 9 10 10 12 16 13 12 12 10 11 12 12 12 13 12 9 5 5 6 6
5 5 5 5 5 4 3 3 2 2 2 3 3 3 4 5 9 10 10 5 7 8 9 9 12 11 15 17 11 10 10 10 11 11 10 9 7 7 7 5 5 5 5
5 5 5 5 4 4 3 2 3 3 3 3 4 4 4 5 8 10 12 6 7 8 8 8 8 14 17 17 13 8 10 12 9 8 8 7 6 4 4 5 5 5 5
5 5 4 3 2 3 3 3 3 3 3 3 4 5 4 5 7 9 13 12 10 7 8 8 9 15 17 15 10 11 14 11 6 6 6 5 5 4 4 6 6 5 5
5 4 3 3 2 2 2 1 1 1 1 2 2 4 5 5 6 10 12 14 15 9 8 13 15 16 14 10 11 13 10 6 6 6 6 5 5 5 5 5 5 5 5
4 3 2 2 1 0 0 0 0 1 1 2 2 4 5 6 6 7 8 8 11 9 9 11 14 12 10 9 9 8 6 6 6 5 6 6 5 5 4 4 4 5 4
3 2 1 1 1 1 2 2 2 3 3 3 3 3 5 6 7 11 8 7 7 7 8 5 6 7 8 7 7 7 6 6 6 6 5 6 6 5 5 5 4 4 4
3 2 1 1 1 1 2 3 3 3 3 3 3 4 4 6 10 11 12 12 12 12 7 5 6 7 7 8 8 7 7 7 7 6 5 5 6 6 6 5 5 5 5
2 2 1 2 2 2 2 2 3 3 4 5 6 7 7 9 10 10 12 12 10 8 5 5 6 7 7 8 7 7 7 7 7 6 5 5 5 5 5 6 6 6 6
2 2 2 2 1 1 1 1 1 1 2 3 5 7 9 10 10 10 10 9 6 6 5 5 6 7 7 7 7 7 8 7 7 6 5 5 5 5 5 6 6 7 6
2 2 1 1 0 0 0 0 1 1 1 2 3 5 8 9 8 8 7 4 5 5 6 6 6 6 7 7 7 7 8 7 7 6 5 5 4 4 5 5 6 8 7
2 3 2 1 1 1 1 1 1 1 1 2 3 4 5 5 5 6 5 5 5 5 6 6 6 6 7 7 7 7 7 7 8 6 6 5 4 3 4 6 6 6 6
1 0 2 2 2 1 1 1 1 1 1 2 3 4 7 4 5 5 5 5 5 5 6 6 6 7 7 7 7 8 8 7 6 6 6 6 5 4 4 5 6 7 7
1 1 2 2 2 2 2 2 1 1 2 3 3 4 7 5 4 5 5 5 5 5 5 5 5 5 6 6 7 7 7 7 7 7 6 6 5 4 5 5 6 7 7
2 3 3 3 2 3 3 2 2 2 2 3 3 4 5 5 5 5 6 6 6 6 6 6 6 6 6 6 6 6 6 7 7 7 6 5 4 4 5 6 7 7 7
3 3 3 3 3 3 3 2 2 3 3 3 4 4 4 5 5 6 6 6 6 6 6 6 6 8 11 8 6 6 6 7 7 5 4 2 3 3 4 4 5 5 5
3 3 3 3 3 3 3 3 3 3 3 4 4 4 5 5 6 6 7 7 8 7 8 8 7 8 11 12 10 9 9 9 6 4 2 3 4 4 4 4 3 3 3
4 4 3 3 3 3 3 3 3 3 3 3 4 4 5 5 6 6 7 7 8 8 8 7 10 11 12 10 11 12 10 9 8 7 4 4 5 5 4 4 4 3 4
Wind_Direction
84 86 87 86 87 87 88 87 88 86 88 92 95 93 89 84 80 78 70 52 41 20 5 350 331 319 309 307 301 292 283 277 288 295 285 281 277 279 283 283 281 280 278
87 87 85 83 83 84 84 83 86 87 89 98 100 96 92 86 78 74 60 45 27 5 347 335 324 320 310 301 294 289 285 276 280 294 298 290 280 279 278 277 279 277 276
87 87 84 82 83 84 84 84 86 89 87 87 91 92 91 87 77 67 53 29 5 343 330 322 315 313 306 301 297 290 285 285 277 285 293 290 284 279 278 276 276 276 278
87 86 83 83 85 86 84 82 80 83 84 82 82 83 84 77 62 42 22 2 345 332 324 315 307 301 293 295 294 289 289 288 284 283 287 290 288 283 277 281 286 282 282
90 88 89 88 87 86 84 80 77 77 83 84 79 67 52 48 36 23 357 347 337 329 324 317 309 305 307 309 309 305 300 294 291 288 290 294 295 295 289 285 288 292 286
92 93 95 94 91 88 85 81 77 72 67 64 57 50 37 32 26 20 5 346 333 325 320 318 313 307 313 316 315 312 309 305 302 295 293 295 299 299 295 291 290 290 287
94 96 94 92 90 87 88 79 71 63 58 54 44 43 37 20 21 7 355 347 327 317 312 312 313 313 317 311 312 313 309 304 301 299 296 296 297 299 296 291 285 284 284
91 94 97 96 92 84 77 71 61 54 51 43 37 35 26 2 359 351 347 343 325 317 311 308 308 311 314 320 318 311 306 302 300 298 289 289 290 292 289 287 289 289 282
88 92 98 101 95 88 78 64 48 52 44 33 32 26 9 342 342 343 348 333 325 322 317 316 316 315 314 319 320 312 308 306 307 302 295 290 290 292 296 300 306 310 310
87 93 93 96 99 94 84 63 45 53 43 33 25 9 353 333 330 338 346 335 329 326 321 319 318 315 315 319 317 309 309 314 315 315 312 308 302 300 306 305 306 308 310
98 94 89 91 98 97 80 65 62 58 45 26 9 351 343 334 333 337 344 343 328 321 319 320 316 314 316 316 315 305 305 309 306 308 310 312 311 307 310 310 303 299 301
102 99 98 96 98 102 96 79 64 58 44 18 359 348 340 335 334 335 337 338 333 321 316 315 311 313 316 316 317 313 314 315 312 317 320 323 324 323 321 317 312 307 297
107 104 102 92 82 101 113 103 66 46 31 355 347 337 330 332 331 334 335 334 336 332 317 315 318 319 322 322 321 323 326 327 326 331 336 337 332 328 324 322 324 323 313
127 126 127 123 104 45 42 192 214 263 294 309 317 321 323 326 333 339 335 331 330 331 324 318 318 321 329 328 328 332 334 330 333 338 339 335 337 341 344 341 334 337 339
140 150 165 200 249 291 287 258 252 247 236 258 286 297 316 325 324 325 327 326 324 321 319 321 335 340 343 342 340 338 339 344 348 347 350 352 356 359 357 350 349 351 2
150 186 229 261 276 282 298 310 297 291 317 299 289 297 298 297 314 327 332 331 332 335 339 342 341 342 341 339 339 339 341 349 349 351 358 1 4 5 4 3 7 13 16
179 220 252 269 280 287 289 300 323 351 21 26 7 353 341 332 335 338 338 335 337 346 354 346 342 340 338 337 339 342 343 344 345 351 1 6 8 9 12 15 16 18 22
215 245 245 259 274 279 274 268 275 344 350 341 336 334 340 341 341 344 345 346 350 354 350 345 341 337 336 337 339 342 341 344 348 349 356 3 10 16 23 27 28 28 26
233 242 241 249 273 285 334 87 73 53 4 330 329 335 341 338 338 348 356 -0 345 343 343 342 338 336 334 335 338 340 341 343 345 346 351 355 2 17 28 30 35 33 35
257 244 200 158 82 72 76 82 70 52 3 341 340 338 338 342 349 349 354 349 345 341 339 336 333 333 333 334 337 340 341 343 347 350 348 349 353 8 23 29 33 37 42
280 280 124 109 93 86 87 86 76 49 1 346 337 335 347 345 346 346 347 347 344 340 336 333 333 335 335 334 336 338 339 338 342 345 346 351 360 13 27 36 41 48 53
83 85 92 101 94 87 89 85 77 50 16 5 349 347 357 5 357 354 350 346 341 336 333 329 329 331 331 330 330 330 330 333 339 344 345 351 9 35 49 51 53 57 61
82 86 81 76 78 85 80 70 59 42 25 12 3 0 1 1 356 353 348 343 341 344 344 342 338 336 334 325 317 313 313 317 319 319 327 347 19 49 64 65 64 65 64
75 83 85 79 75 75 73 63 53 46 36 24 15 9 1 355 351 349 347 343 343 344 347 347 341 336 337 333 323 317 312 309 306 301 314 357 44 70 80 78 72 70 69
70 77 79 76 78 79 77 70 62 54 44 32 20 10 0 356 354 351 348 346 346 348 350 350 346 341 340 337 337 333 328 328 336 340 0 51 69 75 82 85 80 77 70
68 72 72 71 73 78 83 79 69 58 43 29 17 8 1 357 354 351 349 350 349 348 351 351 349 349 347 345 341 338 340 352 5 15 35 60 64 65 73 73 72 63 57